Wind_Speed
27 28 28 28 29 29 30 31 32 30 29 28 28 29 29 29 30 30 30 30 30 30 30 30 32 34 34 36 37 39 39 40 40 40 41 42 43 43 43 44 44 44 45 46
27 27 28 28 29 30 30 30 31 30 29 29 29 29 30 30 31 31 30 30 31 32 31 31 32 33 33 34 35 35 36 37 38 38 39 41 42 42 42 42 43 44 44 45
27 26 27 27 27 28 29 29 30 30 29 29 30 30 30 30 30 31 31 31 32 32 31 31 32 33 33 33 33 33 33 34 36 37 38 39 40 41 41 40 41 41 42 42
27 27 27 27 27 27 28 28 28 28 29 29 30 30 31 31 31 31 32 31 31 30 30 30 30 30 31 31 30 30 31 32 33 36 37 38 39 39 39 39 39 39 39 40
27 27 27 26 27 27 28 28 27 27 27 28 29 30 30 31 31 31 31 30 30 29 29 29 29 28 28 28 28 29 29 31 32 34 35 37 38 38 39 38 38 38 38 38
27 28 28 26 26 26 27 28 27 27 27 28 29 30 29 30 30 31 31 30 29 30 29 29 27 28 28 26 28 29 30 31 32 33 34 35 36 37 38 38 38 38 38 38
27 28 28 26 26 26 26 27 27 27 28 29 29 29 29 28 29 30 30 29 28 29 29 28 27 28 28 28 29 29 30 31 31 32 33 34 35 36 36 36 37 38 38 38
27 27 27 26 26 26 25 26 27 28 29 29 29 28 28 28 28 29 29 28 28 28 28 28 28 28 28 29 28 28 29 30 31 32 32 33 34 34 35 37 37 37 37 37
27 27 27 27 26 26 26 26 27 28 29 29 29 29 28 28 28 29 29 28 28 29 29 29 29 29 28 29 29 29 29 29 30 31 32 33 33 34 35 36 36 37 37 37
29 28 28 27 27 27 27 27 28 28 29 29 29 28 29 29 29 29 29 29 29 29 30 30 30 30 30 29 28 28 28 29 29 30 30 31 32 33 34 34 35 35 36 37
29 28 28 28 28 28 28 28 29 29 29 29 29 29 29 29 29 29 30 30 30 30 30 30 30 30 29 29 28 27 28 29 28 28 28 29 29 30 30 31 32 33 33 33
30 29 30 29 30 29 29 29 29 29 29 30 30 31 31 31 31 31 31 31 31 30 30 30 29 28 28 29 28 28 28 28 27 27 28 28 28 28 29 29 29 29 29 30
31 31 31 30 30 30 30 29 30 30 31 31 31 32 33 33 33 32 32 32 31 30 30 30 30 28 28 28 28 28 28 28 27 27 28 28 28 27 28 27 28 28 28 28
32 31 31 31 31 31 30 30 31 31 32 32 32 32 32 32 32 32 31 31 30 30 29 29 29 29 28 28 28 28 27 27 27 27 28 28 28 27 27 27 27 28 27 26
32 32 32 31 31 31 31 31 32 32 32 33 33 33 33 32 32 31 31 31 30 30 30 30 30 30 29 29 28 27 27 27 26 26 27 27 26 26 26 26 26 26 25 25
32 32 32 31 30 31 31 32 33 33 34 34 34 34 33 32 32 31 31 30 31 30 30 30 30 30 30 29 28 28 28 27 27 27 27 27 26 26 25 25 25 25 24 24
31 31 31 30 30 30 31 31 32 32 33 34 34 34 33 32 32 32 31 31 31 31 30 30 31 30 30 29 29 29 29 29 29 28 28 28 26 26 25 25 25 24 25 24
29 30 30 30 31 30 31 31 31 31 32 32 33 32 32 31 31 31 31 31 30 30 31 31 31 30 29 29 29 30 30 29 29 29 28 27 26 25 25 25 25 24 24 24
29 29 29 29 29 30 30 30 30 30 30 30 30 30 30 30 30 30 30 29 29 30 30 31 31 30 30 29 29 30 29 29 29 28 27 26 25 25 25 25 24 24 24 24
28 29 29 29 29 29 29 29 29 29 29 29 29 29 29 30 30 30 29 28 29 29 29 30 30 29 29 30 30 29 28 28 27 27 27 26 26 25 25 25 25 25 25 24
27 27 27 28 28 28 29 29 29 29 29 29 29 29 29 30 29 29 28 28 28 29 28 28 28 28 28 28 29 29 28 27 27 26 26 26 26 26 26 26 25 25 25 24
25 25 26 26 27 28 29 29 30 29 29 29 29 29 29 29 28 28 28 27 27 27 27 27 27 27 27 27 28 27 27 26 26 26 25 25 25 26 26 25 25 25 24 23
25 25 25 26 27 27 28 29 29 29 29 29 29 29 28 28 27 26 26 26 26 26 26 26 26 26 26 26 26 26 25 25 24 24 24 24 25 25 25 24 24 24 23 23
25 25 25 26 26 27 27 28 28 28 28 28 28 28 28 27 27 26 26 25 25 25 25 25 25 25 25 25 25 25 23 23 23 23 23 23 23 23 23 22 22 22 22 22
25 25 25 26 26 26 27 27 27 27 27 27 27 27 27 26 26 25 25 25 25 25 24 24 24 24 24 23 23 23 23 22 22 22 22 21 21 21 21 21 21 21 21 21
25 24 25 25 25 26 26 26 26 26 27 27 26 26 26 25 25 25 24 24 24 24 23 23 22 22 22 22 22 22 22 22 21 21 21 21 21 20 20 20 20 20 20 20
24 24 24 25 25 25 25 25 25 25 26 26 25 25 25 25 24 24 24 23 23 23 22 22 22 21 21 22 22 22 22 21 21 20 20 19 20 20 20 19 19 18 18 18
Wind_Direction
267 268 269 268 269 271 273 276 278 280 280 280 282 283 283 283 283 281 281 281 283 286 286 282 280 279 277 276 273 269 266 263 261 262 262 262 261 261 261 263 265 266 267 268
267 269 271 270 270 272 274 275 277 278 278 280 280 281 282 283 282 282 283 283 284 287 287 284 282 281 279 278 276 271 268 264 263 264 264 263 262 262 262 264 265 267 268 269
269 270 273 272 274 276 276 274 275 277 280 280 281 281 281 282 281 282 284 285 285 287 288 286 284 282 281 280 277 272 270 267 266 265 266 265 264 263 264 264 266 268 269 269
271 270 273 276 277 277 277 276 277 278 281 283 285 285 283 283 282 284 286 285 285 287 289 288 287 285 283 280 276 273 272 270 269 267 267 266 265 264 263 264 267 269 270 271
273 274 275 275 279 279 278 276 276 278 283 285 285 286 284 284 283 285 287 287 285 287 289 290 287 286 284 280 276 274 272 271 271 270 269 268 267 263 262 265 268 271 272 273
272 275 276 280 281 281 278 276 276 278 281 284 286 286 285 283 282 283 286 286 285 287 289 291 288 286 284 280 281 276 272 273 274 273 271 270 269 267 265 266 268 271 272 272
270 274 277 280 281 281 278 279 279 280 282 285 287 287 287 285 282 283 285 286 286 287 288 290 288 287 284 282 283 278 275 273 273 273 273 272 271 269 267 268 270 273 273 273
270 272 275 279 279 278 279 280 279 281 282 283 286 288 287 286 283 283 285 287 287 287 289 289 289 288 285 283 282 280 279 276 274 275 275 274 272 271 269 270 272 273 274 274
270 273 275 277 277 277 278 279 280 281 283 283 285 287 286 285 284 283 284 286 287 287 287 289 289 288 287 285 283 282 282 280 278 277 277 276 273 271 270 270 272 273 273 274
269 271 273 274 275 274 276 278 281 281 282 284 286 286 286 285 283 282 283 285 287 287 287 287 289 289 288 289 287 283 282 283 281 279 277 277 274 272 272 272 273 274 275 275
269 269 269 270 272 274 275 277 278 279 281 283 285 285 285 285 284 283 283 285 287 287 287 286 286 287 287 288 287 285 283 284 283 281 279 279 277 276 274 273 275 276 274 274
269 270 270 270 271 273 275 277 278 278 279 281 282 284 285 285 284 284 283 283 285 286 285 284 283 283 286 287 287 287 286 283 282 281 282 280 278 277 275 276 276 276 276 276
270 270 271 272 272 273 275 276 277 279 280 282 283 285 286 286 284 284 283 283 284 284 284 283 282 282 283 285 286 288 288 286 283 283 284 283 281 279 277 278 280 280 278 277
268 271 272 272 271 272 274 275 277 279 281 283 283 285 286 286 284 284 282 281 282 283 284 283 283 283 283 284 286 287 287 287 285 284 284 284 282 280 279 277 279 280 278 277
268 270 273 273 271 272 273 275 276 278 281 283 283 284 285 285 284 283 282 280 281 282 283 283 283 282 282 283 284 286 286 287 287 287 287 285 283 283 281 279 279 280 279 278
268 270 272 271 272 273 274 275 277 279 281 282 283 282 282 283 283 282 281 280 280 282 283 283 282 281 281 282 283 284 285 286 286 287 288 286 283 282 281 282 282 280 279 278
268 270 270 271 272 274 277 278 278 280 281 282 282 282 281 282 282 282 281 279 279 281 281 281 281 282 282 283 283 284 284 285 285 286 285 284 282 280 279 280 281 281 279 279
270 270 270 271 272 275 278 279 280 281 283 283 283 282 281 282 282 282 281 280 279 279 280 281 281 281 281 282 282 283 284 284 284 284 283 282 280 279 280 281 281 280 279 280
272 271 271 272 273 275 277 279 280 281 282 283 283 283 283 283 282 283 282 281 281 281 280 280 280 280 280 281 283 284 284 284 283 282 281 280 278 278 279 280 280 280 281 281
273 273 271 272 274 275 277 279 280 281 282 283 283 284 285 284 284 284 284 283 282 282 281 281 280 280 281 281 282 283 283 283 282 281 280 278 278 278 279 279 279 280 281 280
274 274 273 273 274 276 278 280 282 281 281 282 283 284 285 285 285 284 284 284 284 283 283 282 282 281 281 282 283 282 281 281 280 280 279 278 277 277 277 278 279 279 279 278
275 275 274 274 275 277 278 280 282 283 283 283 284 285 285 285 284 284 284 284 283 284 283 282 282 283 282 282 282 282 280 279 279 279 279 278 277 275 275 276 276 276 276 275
275 275 275 276 278 279 281 282 283 283 284 284 284 285 284 284 284 284 284 283 282 283 283 283 283 284 283 283 283 282 280 279 279 280 279 277 276 276 275 274 272 272 273 274
276 276 276 278 280 281 282 284 285 285 285 284 284 284 284 283 283 283 283 283 282 282 283 284 283 284 284 284 283 282 280 280 280 280 279 277 276 277 276 274 272 272 273 274
277 278 278 280 281 283 284 285 286 286 285 284 284 284 283 283 282 282 281 281 281 282 283 284 285 285 284 284 283 282 280 281 281 280 278 277 277 277 276 274 273 272 273 273
278 280 280 281 282 284 286 287 286 286 285 285 284 283 282 282 282 281 281 280 281 281 281 282 284 285 284 283 283 283 282 282 282 282 280 277 277 276 275 274 274 274 273 272
280 281 282 283 284 285 286 287 288 287 287 286 285 283 281 280 280 279 279 279 278 279 280 281 283 284 284 284 284 282 282 282 282 282 281 279 278 275 273 272 273 274 273 273
Height
5626 5626 5625 5625 5625 5624 5622 5621 5620 5620 5619 5619 5617 5614 5612 5610 5608 5606 5604 5603 5601 5598 5595 5592 5590 5588 5586 5585 5583 5583 5583 5584 5586 5587 5588 5589 5591 5592 5593 5594 5595 5595 5595 5595
5618 5618 5617 5617 5617 5616 5615 5613 5612 5611 5611 5611 5608 5606 5604 5602 5599 5597 5596 5594 5592 5589 5586 5583 5581 5579 5577 5575 5573 5572 5573 5574 5575 5576 5577 5578 5579 5580 5581 5582 5583 5583 5583 5583
5611 5610 5609 5609 5610 5608 5607 5606 5604 5603 5604 5602 5600 5598 5596 5593 5591 5589 5587 5585 5583 5580 5577 5574 5572 5569 5567 5566 5564 5563 5563 5564 5565 5565 5566 5567 5568 5569 5570 5571 5571 5571 5571 5570
5602 5603 5602 5605 5602 5600 5599 5598 5597 5596 5595 5593 5592 5589 5587 5584 5583 5581 5579 5577 5574 5572 5569 5566 5563 5561 5558 5557 5555 5555 5555 5555 5555 5556 5556 5556 5557 5558 5559 5559 5559 5559 5558 5558
5595 5594 5594 5596 5594 5592 5591 5591 5590 5588 5587 5585 5583 5581 5579 5576 5574 5572 5570 5568 5566 5564 5561 5558 5555 5553 5550 5549 5547 5546 5546 5546 5546 5546 5546 5546 5546 5547 5548 5548 5548 5548 5547 5547
5588 5586 5586 5589 5587 5584 5583 5582 5582 5580 5579 5577 5575 5573 5572 5569 5566 5564 5562 5559 5557 5555 5552 5550 5547 5545 5543 5541 5539 5538 5537 5537 5537 5536 5536 5536 5536 5536 5537 5538 5538 5537 5537 5536
5580 5578 5579 5581 5578 5576 5576 5576 5574 5572 5571 5569 5567 5565 5563 5560 5557 5555 5553 5551 5549 5547 5545 5542 5540 5538 5535 5533 5531 5529 5528 5527 5527 5527 5526 5526 5526 5526 5526 5527 5527 5527 5526 5526
5572 5571 5574 5572 5570 5569 5568 5567 5565 5564 5562 5561 5559 5556 5554 5552 5549 5547 5546 5543 5541 5540 5537 5535 5532 5530 5528 5526 5524 5522 5521 5520 5519 5518 5517 5516 5516 5516 5516 5517 5517 5516 5516 5515
5565 5567 5565 5563 5562 5561 5560 5559 5557 5556 5554 5552 5551 5549 5546 5544 5542 5540 5538 5536 5534 5532 5530 5528 5525 5523 5521 5519 5517 5515 5513 5512 5511 5510 5509 5507 5507 5507 5506 5506 5506 5506 5505 5505
5556 5557 5556 5555 5553 5552 5551 5551 5549 5547 5546 5544 5543 5541 5539 5537 5535 5533 5531 5529 5527 5525 5523 5520 5518 5516 5514 5512 5509 5508 5506 5504 5502 5501 5500 5499 5498 5497 5497 5496 5496 5495 5495 5494
5547 5548 5547 5546 5545 5544 5543 5542 5541 5539 5538 5536 5535 5533 5531 5529 5527 5525 5523 5521 5519 5517 5515 5513 5511 5508 5506 5504 5502 5500 5498 5496 5494 5492 5491 5490 5489 5488 5487 5487 5486 5485 5485 5484
5538 5538 5538 5537 5536 5535 5535 5534 5532 5531 5529 5528 5526 5525 5523 5521 5519 5517 5515 5513 5511 5509 5507 5505 5503 5501 5498 5496 5495 5493 5491 5489 5487 5485 5484 5482 5481 5480 5478 5478 5477 5476 5475 5474
5529 5528 5528 5527 5527 5526 5525 5524 5523 5522 5520 5519 5517 5515 5514 5512 5510 5508 5506 5504 5502 5500 5499 5497 5495 5493 5491 5489 5487 5485 5483 5481 5479 5478 5476 5475 5473 5472 5471 5470 5468 5467 5466 5465
5519 5518 5518 5518 5517 5516 5516 5515 5514 5512 5511 5509 5508 5506 5504 5502 5501 5499 5497 5495 5493 5492 5490 5488 5487 5485 5483 5481 5479 5477 5475 5473 5471 5470 5468 5467 5465 5464 5463 5462 5461 5459 5458 5456
5509 5509 5508 5508 5507 5507 5506 5505 5504 5503 5502 5500 5498 5497 5495 5493 5491 5490 5488 5486 5485 5483 5482 5480 5478 5476 5474 5473 5471 5469 5467 5465 5464 5462 5460 5458 5457 5456 5455 5454 5452 5451 5449 5448
5499 5499 5499 5498 5498 5497 5496 5495 5494 5493 5492 5490 5488 5487 5485 5483 5481 5480 5478 5477 5476 5474 5473 5471 5470 5468 5466 5464 5463 5461 5459 5457 5456 5454 5452 5451 5449 5448 5447 5446 5444 5443 5441 5440
5490 5490 5490 5489 5489 5488 5487 5486 5484 5483 5482 5480 5478 5476 5475 5473 5471 5470 5468 5467 5466 5465 5463 5462 5460 5459 5457 5456 5454 5453 5451 5449 5447 5446 5444 5442 5441 5440 5439 5438 5436 5435 5434 5433
5480 5480 5480 5480 5479 5478 5477 5476 5474 5473 5472 5470 5468 5466 5465 5463 5462 5460 5458 5457 5456 5455 5453 5452 5451 5450 5448 5447 5445 5444 5442 5440 5439 5437 5435 5434 5432 5432 5431 5430 5429 5427 5426 5425
5471 5471 5470 5470 5469 5468 5467 5466 5465 5463 5462 5460 5458 5457 5455 5453 5451 5450 5448 5447 5446 5445 5444 5442 5441 5440 5439 5437 5436 5434 5433 5431 5430 5428 5427 5425 5424 5424 5423 5422 5421 5420 5419 5418
5461 5461 5461 5460 5459 5459 5458 5457 5455 5454 5452 5450 5449 5447 5446 5444 5442 5440 5439 5437 5436 5435 5433 5432 5431 5430 5429 5428 5427 5425 5423 5422 5421 5419 5418 5417 5416 5416 5415 5414 5413 5412 5411 5410
5452 5452 5451 5451 5450 5449 5448 5447 5446 5445 5443 5441 5439 5437 5436 5434 5432 5430 5429 5428 5427 5425 5424 5423 5422 5421 5419 5418 5417 5416 5414 5413 5412 5411 5409 5409 5408 5407 5407 5406 5405 5404 5403 5402
5443 5443 5442 5441 5441 5440 5439 5437 5436 5435 5433 5431 5429 5427 5426 5424 5423 5421 5420 5419 5418 5416 5415 5414 5413 5411 5410 5409 5408 5406 5405 5404 5403 5402 5401 5400 5399 5399 5398 5397 5397 5396 5395 5395
5434 5434 5433 5432 5431 5430 5429 5428 5426 5424 5423 5421 5419 5418 5416 5415 5413 5412 5411 5410 5409 5408 5406 5405 5404 5403 5401 5400 5399 5398 5396 5395 5394 5393 5392 5392 5391 5390 5390 5389 5388 5388 5387 5387
5425 5425 5424 5423 5422 5421 5420 5418 5416 5415 5413 5411 5410 5408 5407 5406 5405 5403 5402 5401 5400 5399 5398 5397 5396 5394 5393 5392 5390 5389 5388 5387 5386 5385 5384 5384 5383 5382 5381 5381 5380 5380 5380 5379
5416 5415 5415 5414 5413 5411 5410 5409 5407 5405 5404 5402 5401 5399 5398 5397 5396 5395 5394 5393 5392 5391 5390 5389 5387 5386 5385 5384 5382 5381 5380 5380 5379 5378 5377 5376 5375 5375 5374 5374 5373 5373 5373 5372
5407 5406 5405 5404 5403 5402 5401 5400 5398 5396 5395 5393 5392 5390 5389 5388 5387 5386 5386 5385 5384 5383 5382 5381 5380 5379 5377 5376 5375 5374 5373 5372 5371 5370 5369 5369 5368 5368 5367 5367 5366 5366 5365 5365
5398 5397 5396 5395 5394 5393 5392 5390 5389 5387 5385 5384 5382 5381 5380 5380 5379 5378 5377 5376 5376 5375 5374 5373 5372 5371 5370 5369 5368 5367 5366 5365 5365 5364 5363 5362 5361 5361 5360 5360 5360 5359 5359 5358